K4AVM-13 Weather Reports


time (UTC)temp
F
wind
direction
speed
knots
gust
knots
rain 1hr
in
rain 24hr
in
rain mn
in
humidity
%
barometer
mb
20260901104909 73 230 0.0 0.0 0.00 0.00 0.00 99 1018.8
20260901104404 73 233 0.0 0.0 0.00 0.00 0.00 99 1018.7
20260901103900 73 237 0.0 0.0 0.00 0.00 0.00 99 1018.9
20260901103354 73 241 0.0 0.0 0.00 0.00 0.00 99 1018.8
20260901102849 73 242 0.0 0.0 0.00 0.00 0.00 99 1018.7
20260901102348 73 243 0.0 0.0 0.00 0.00 0.00 99 1018.8
20260901101844 73 242 0.0 0.0 0.00 0.00 0.00 99 1018.6
20260901101339 73 242 0.0 0.0 0.00 0.00 0.00 99 1018.6
20260901100839 73 243 0.0 0.0 0.00 0.00 0.00 99 1018.7
20260901100339 73 243 0.0 0.0 0.00 0.00 0.00 99 1018.9
20260901095833 72 242 0.0 0.0 0.00 0.00 0.00 99 1018.8
20260901095330 72 243 0.0 0.0 0.00 0.00 0.00 99 1018.7
20260901094824 72 243 0.0 0.0 0.00 0.00 0.00 99 1018.8
20260901094319 72 243 0.0 0.0 0.00 0.00 0.00 99 1018.7
20260901093815 72 243 0.0 0.0 0.00 0.00 0.00 99 1018.5
20260901093313 72 239 0.0 0.0 0.00 0.00 0.00 99 1018.7
20260901092810 72 239 0.0 0.0 0.00 0.00 0.00 99 1018.7
20260901092306 72 239 0.0 0.0 0.00 0.00 0.00 99 1018.5
20260901091801 72 239 0.0 0.0 0.00 0.00 0.00 99 1018.8
20260901091256 72 239 0.0 0.0 0.00 0.00 0.00 99 1018.8
20260901090755 72 239 0.0 0.0 0.00 0.00 0.00 99 1018.8
20260901090250 72 239 0.0 0.0 0.00 0.00 0.00 99 1018.7
20260901085746 72 239 0.0 0.0 0.00 0.00 0.00 99 1018.6
20260901085242 73 239 0.0 0.0 0.00 0.00 0.00 99 1018.5
20260901084738 72 239 0.0 0.0 0.00 0.00 0.00 99 1018.5
20260901084235 72 239 0.0 0.0 0.00 0.00 0.00 99 1018.5
20260901083734 72 231 0.0 0.0 0.00 0.00 0.00 99 1018.4
20260901083234 72 231 0.0 0.0 0.00 0.00 0.00 99 1018.7
20260901082732 72 243 0.0 0.0 0.00 0.00 0.00 99 1018.7
20260901082228 72 244 0.0 0.0 0.00 0.00 0.00 99 1018.9
20260901081723 72 242 0.0 0.0 0.00 0.00 0.00 99 1019.0
20260901081223 73 243 0.0 0.0 0.00 0.00 0.00 99 1018.6
20260901080718 72 243 0.0 0.0 0.00 0.00 0.00 99 1018.9
20260901080217 72 242 0.0 0.0 0.00 0.00 0.00 99 1018.6
20260901075711 72 242 0.0 0.0 0.00 0.00 0.00 99 1018.9
20260901075206 73 243 0.0 0.0 0.00 0.00 0.00 99 1018.9
20260901074706 73 242 0.0 0.0 0.00 0.00 0.00 99 1019.1
20260901074200 73 244 0.0 0.0 0.00 0.00 0.00 99 1018.9
20260901073657 72 219 0.0 0.0 0.00 0.00 0.00 99 1018.8
20260901073152 73 218 0.0 0.0 0.00 0.00 0.00 99 1018.9
20260901072647 73 248 0.0 0.0 0.00 0.00 0.00 99 1019.0
20260901072143 73 248 0.0 0.0 0.00 0.00 0.00 99 1019.0
20260901071642 73 254 0.0 0.0 0.00 0.00 0.00 99 1019.1
20260901071137 73 254 0.0 0.0 0.00 0.00 0.00 99 1019.1
20260901070631 73 243 0.0 0.0 0.00 0.00 0.00 99 1019.1
20260901070127 73 239 0.0 0.0 0.00 0.00 0.00 99 1019.3
20260901065620 73 239 0.0 0.0 0.00 0.00 0.00 99 1019.0
20260901065115 73 239 0.0 0.0 0.00 0.00 0.00 99 1019.2
20260901064612 73 239 0.0 0.0 0.00 0.00 0.00 99 1019.1
20260901064108 73 239 0.0 0.0 0.00 0.00 0.00 99 1019.3
20260901063605 73 239 0.0 0.0 0.00 0.00 0.00 99 1019.4
20260901063101 73 239 0.0 0.0 0.00 0.00 0.00 99 1019.4
20260901062556 73 236 0.0 0.0 0.00 0.00 0.00 99 1019.3
20260901062052 73 232 0.0 0.0 0.00 0.00 0.00 99 1019.3
20260901061548 73 231 0.0 0.0 0.00 0.00 0.00 98 1019.3
20260901061043 73 231 0.0 0.0 0.00 0.00 0.00 98 1019.5
20260901060537 73 241 0.0 0.0 0.00 0.00 0.00 98 1019.6
20260901060032 73 239 0.0 0.0 0.00 0.00 0.00 98 1019.6
20260901055528 73 239 0.0 0.0 0.00 0.00 0.00 98 1019.6
20260901055025 73 239 0.0 0.0 0.00 0.00 0.00 98 1019.6
20260901054521 73 233 0.0 0.0 0.00 0.00 0.00 98 1019.6
20260901054016 73 230 0.0 0.0 0.00 0.00 0.00 98 1019.7
20260901053506 73 233 0.0 0.0 0.00 0.00 0.00 98 1019.8
20260901053001 73 233 0.0 0.0 0.00 0.00 0.00 97 1020.0
20260901052452 73 233 0.0 0.0 0.00 0.00 0.00 97 1020.0
20260901051950 74 233 0.0 0.0 0.00 0.00 0.00 97 1019.7
20260901051446 74 233 0.0 0.0 0.00 0.00 0.00 96 1019.9
20260901050944 74 233 0.0 0.0 0.00 0.00 0.00 96 1020.0
20260901050440 74 233 0.0 0.0 0.00 0.00 0.00 96 1020.0
20260901045935 74 233 0.0 0.0 0.00 0.00 0.00 95 1020.1
20260901045430 74 233 0.0 0.0 0.00 0.00 0.00 95 1020.1
20260901044925 74 250 0.0 0.0 0.00 0.00 0.00 94 1020.1
20260901044421 75 250 0.0 0.0 0.00 0.00 0.00 94 1020.1
20260901043917 75 250 0.0 0.0 0.00 0.00 0.00 94 1020.3
20260901043413 75 250 0.0 0.0 0.00 0.00 0.00 93 1020.0
20260901042913 75 250 0.0 0.0 0.00 0.00 0.00 93 1020.2
20260901042412 76 254 0.0 0.0 0.00 0.00 0.00 92 1020.0
20260901041909 76 254 0.0 0.0 0.00 0.00 0.00 92 1020.0
20260901041409 76 231 0.0 0.0 0.00 0.00 0.00 91 1019.9
20260901040908 77 207 0.0 0.0 0.00 0.00 0.00 90 1019.8
20260901040407 77 212 0.0 0.0 0.00 0.00 0.00 90 1019.9
20260901035902 77 216 0.0 0.9 0.00 0.00 0.00 90 1019.9
20260901035401 77 178 0.0 1.7 0.00 0.00 0.00 90 1019.9
20260901034859 77 216 0.0 0.0 0.00 0.00 0.00 89 1019.8
20260901034354 77 212 0.0 0.9 0.00 0.00 0.00 89 1019.8
20260901033849 77 212 0.0 0.9 0.00 0.00 0.00 90 1019.9
20260901033349 77 185 0.0 0.0 0.00 0.00 0.00 90 1019.9
20260901032847 77 205 0.9 1.7 0.00 0.00 0.00 90 1019.7
20260901032346 76 215 0.0 0.0 0.00 0.00 0.00 91 1019.7
20260901031841 76 205 0.0 0.0 0.00 0.00 0.00 91 1019.9
20260901031337 76 231 0.0 0.0 0.00 0.00 0.00 91 1019.7
20260901030836 77 230 0.0 0.0 0.00 0.00 0.00 91 1019.9
20260901030332 77 224 0.0 0.0 0.00 0.00 0.00 90 1019.9
20260901025831 77 231 0.0 0.0 0.00 0.00 0.00 90 1020.2
20260901025326 77 231 0.0 0.0 0.00 0.00 0.00 90 1019.9
20260901024821 77 221 0.0 0.0 0.00 0.00 0.00 89 1019.8
20260901024320 77 219 0.0 0.0 0.00 0.00 0.00 88 1020.0
20260901023819 78 184 0.0 0.0 0.00 0.00 0.00 88 1019.8
20260901023314 78 149 0.9 0.9 0.00 0.00 0.00 87 1019.9
20260901022809 78 205 0.0 0.0 0.00 0.00 0.00 87 1020.0
20260901022306 78 202 0.0 0.9 0.00 0.00 0.00 86 1019.9
20260901021800 78 170 0.9 0.9 0.00 0.00 0.00 87 1020.0
20260901021255 78 193 0.0 0.0 0.00 0.00 0.00 87 1019.9
20260901020751 78 217 0.0 0.0 0.00 0.00 0.00 88 1020.1
20260901020246 78 216 0.0 0.0 0.00 0.00 0.00 88 1020.0
20260901015740 78 216 0.0 0.0 0.00 0.00 0.00 87 1020.0
20260901015237 78 203 0.0 0.0 0.00 0.00 0.00 87 1020.1
20260901014736 78 205 0.0 0.0 0.00 0.00 0.00 87 1020.1
20260901014232 78 242 0.0 0.0 0.00 0.00 0.00 87 1020.0
20260901013728 78 224 0.0 0.0 0.00 0.00 0.00 87 1020.0
20260901013223 78 213 0.0 0.0 0.00 0.00 0.00 86 1020.0
20260901012719 79 200 0.0 0.0 0.00 0.00 0.00 86 1020.0
20260901012218 79 235 0.0 0.0 0.00 0.00 0.00 85 1020.1
20260901011714 79 331 0.0 0.9 0.00 0.00 0.00 85 1019.9
20260901011214 79 191 0.0 0.0 0.00 0.00 0.00 84 1020.0
20260901010708 80 127 0.0 1.7 0.00 0.00 0.00 84 1019.8
20260901010203 80 216 0.0 0.9 0.00 0.00 0.00 83 1020.0
20260901005702 80 217 0.0 1.7 0.00 0.00 0.00 82 1019.9
20260901005158 81 227 0.0 0.9 0.00 0.00 0.00 81 1019.8
20260901004657 81 41 0.9 1.7 0.00 0.00 0.00 81 1019.9
20260901004151 82 193 0.9 1.7 0.00 0.00 0.00 80 1019.9
20260901003646 81 258 0.0 6.1 0.00 0.00 0.00 80 1019.7
20260901003145 81 164 0.0 0.0 0.00 0.00 0.00 81 1019.8
20260901002640 81 13 0.9 0.9 0.00 0.00 0.00 80 1019.8
20260901002134 81 235 0.0 0.0 0.00 0.00 0.00 80 1019.8
20260901001630 82 200 0.0 0.0 0.00 0.00 0.00 80 1019.7
20260901001125 82 201 0.0 0.9 0.00 0.00 0.00 79 1019.5
20260901000620 82 218 0.0 0.0 0.00 0.00 0.00 78 1019.5
20260901000115 82 242 0.0 0.0 0.00 0.00 0.00 77 1019.5
20260831235609 82 350 0.0 0.9 0.00 0.00 0.00 77 1019.3
20260831235104 82 250 0.0 0.0 0.00 0.00 0.00 77 1019.4
20260831234558 82 257 0.0 0.0 0.00 0.00 0.00 76 1019.5
20260831234054 83 259 0.0 0.0 0.00 0.00 0.00 75 1019.2
20260831233549 83 264 0.0 0.0 0.00 0.00 0.00 75 1019.3
20260831233045 83 256 0.0 0.0 0.00 0.00 0.00 74 1019.4
20260831232540 83 254 0.0 0.0 0.00 0.00 0.00 73 1019.4
20260831232035 84 252 0.0 0.0 0.00 0.00 0.00 72 1019.3
20260831231532 84 242 0.0 0.0 0.00 0.00 0.00 71 1019.1
20260831231027 85 240 0.0 0.9 0.00 0.00 0.00 70 1019.3
20260831230522 85 252 0.0 0.0 0.00 0.00 0.00 69 1019.1
20260831230017 86 248 0.0 0.0 0.00 0.00 0.00 68 1019.2
20260831225513 86 255 0.0 0.9 0.00 0.00 0.00 68 1019.1
20260831225012 86 248 0.0 0.9 0.00 0.00 0.00 67 1019.2
20260831224507 87 309 0.0 0.0 0.00 0.00 0.00 67 1019.0
20260831224002 87 287 0.0 0.9 0.00 0.00 0.00 66 1019.1
20260831223458 87 264 0.0 0.9 0.00 0.00 0.00 66 1019.1
20260831222954 88 266 0.9 2.6 0.00 0.00 0.00 65 1019.1
20260831222450 88 311 0.0 1.7 0.00 0.00 0.00 64 1019.3
20260831221949 89 250 0.9 0.9 0.00 0.00 0.00 63 1019.4
20260831221445 89 285 1.7 2.6 0.00 0.00 0.00 62 1019.3
20260831220940 89 337 0.0 1.7 0.00 0.00 0.00 61 1019.1
20260831220436 90 208 0.0 1.7 0.00 0.00 0.00 60 1019.0
20260831215931 90 203 0.0 0.9 0.00 0.00 0.00 59 1019.1
20260831215426 91 13 3.5 3.5 0.00 0.00 0.00 57 1019.1
20260831214923 91 294 0.9 2.6 0.00 0.00 0.00 58 1019.0
20260831214420 91 209 0.0 0.9 0.00 0.00 0.00 58 1019.1
20260831213915 91 322 0.0 0.0 0.00 0.00 0.00 57 1019.1
20260831213412 92 240 0.0 0.9 0.00 0.00 0.00 54 1019.0
20260831212912 93 184 0.0 0.0 0.00 0.00 0.00 53 1018.9
20260831212408 93 356 1.7 3.5 0.00 0.00 0.00 52 1019.2
20260831211907 93 305 0.9 0.9 0.00 0.00 0.00 54 1019.0
20260831211402 93 45 0.9 2.6 0.00 0.00 0.00 54 1019.1
20260831210856 94 237 0.9 1.7 0.00 0.00 0.00 52 1019.0
20260831210352 94 353 0.9 1.7 0.00 0.00 0.00 53 1019.0
20260831205847 94 245 0.0 0.9 0.00 0.00 0.00 51 1019.1
20260831205343 93 240 0.0 1.7 0.00 0.00 0.00 53 1019.0
20260831204838 93 220 0.9 0.9 0.00 0.00 0.00 52 1019.1
20260831204337 95 325 1.7 1.7 0.00 0.00 0.00 54 1019.0
20260831203836 93 229 0.0 0.0 0.00 0.00 0.00 54 1019.0
20260831203331 92 248 0.9 0.9 0.00 0.00 0.00 54 1019.2
20260831202829 92 331 4.3 5.2 0.00 0.00 0.00 56 1019.0
20260831202324 93 7 2.6 2.6 0.00 0.00 0.00 56 1019.0
20260831201818 93 229 0.0 0.9 0.00 0.00 0.00 57 1019.1
20260831201317 93 5 3.5 3.5 0.00 0.00 0.00 54 1019.1
20260831200813 93 247 0.0 1.7 0.00 0.00 0.00 57 1018.9
20260831200308 91 239 0.9 0.9 0.00 0.00 0.00 58 1018.9
20260831195803 91 11 1.7 2.6 0.00 0.00 0.00 58 1019.1
20260831195259 93 139 0.9 2.6 0.00 0.00 0.00 56 1019.0
20260831194754 95 222 0.0 1.7 0.00 0.00 0.00 53 1019.1
20260831194249 95 349 0.9 1.7 0.00 0.00 0.00 53 1019.3
20260831193743 93 233 0.0 0.9 0.00 0.00 0.00 54 1019.3
20260831193239 92 350 0.9 1.7 0.00 0.00 0.00 57 1019.2
20260831192733 92 336 0.9 1.7 0.00 0.00 0.00 54 1019.2
20260831192228 94 210 0.9 5.2 0.00 0.00 0.00 52 1019.2
20260831191725 94 220 0.0 0.9 0.00 0.00 0.00 53 1019.2
20260831191221 95 14 0.9 2.6 0.00 0.00 0.00 51 1019.4
20260831190716 95 228 0.9 1.7 0.00 0.00 0.00 53 1019.5
20260831190215 93 355 0.0 0.9 0.00 0.00 0.00 54 1019.6
20260831185710 94 235 0.0 0.9 0.00 0.00 0.00 53 1019.7
20260831185206 94 267 0.0 1.7 0.00 0.00 0.00 53 1019.7
20260831184704 94 233 0.0 0.9 0.00 0.00 0.00 56 1019.7
20260831184201 94 323 1.7 2.6 0.00 0.00 0.00 54 1019.7
20260831183659 94 249 2.6 2.6 0.00 0.00 0.00 54 1019.9
20260831183154 94 262 0.0 1.7 0.00 0.00 0.00 55 1019.9
20260831182653 92 5 0.9 2.6 0.00 0.00 0.00 59 1019.8
20260831182149 93 122 0.9 0.9 0.00 0.00 0.00 57 1019.8
20260831181643 93 344 1.7 2.6 0.00 0.00 0.00 57 1019.6
20260831181137 93 166 0.0 1.7 0.00 0.00 0.00 58 1019.9
20260831180633 94 246 0.0 0.0 0.00 0.00 0.00 56 1020.1
20260831180128 93 49 0.9 1.7 0.00 0.00 0.00 57 1020.0
20260831175622 92 210 0.9 0.9 0.00 0.00 0.00 59 1020.0
20260831175119 91 267 0.0 2.6 0.00 0.00 0.00 62 1020.2
20260831174614 92 243 0.0 1.7 0.00 0.00 0.00 62 1020.2
20260831174113 93 355 2.6 3.5 0.00 0.00 0.00 57 1020.1
20260831173612 92 229 0.9 0.9 0.00 0.00 0.00 60 1020.2
20260831173108 91 89 1.7 1.7 0.00 0.00 0.00 61 1020.1
20260831172603 91 240 0.9 3.5 0.00 0.00 0.00 64 1020.3
20260831172058 91 177 0.0 1.7 0.00 0.00 0.00 66 1020.3
20260831171553 91 258 0.9 2.6 0.00 0.00 0.00 61 1020.2
20260831171050 90 243 0.0 1.7 0.00 0.00 0.00 64 1020.2
20260831170546 91 350 2.6 3.5 0.00 0.00 0.00 62 1020.3
20260831170044 91 180 0.0 0.9 0.00 0.00 0.00 61 1020.3
20260831165543 90 241 0.0 0.0 0.00 0.00 0.00 62 1020.4
20260831165040 91 242 0.9 1.7 0.00 0.00 0.00 64 1020.5
20260831164536 91 340 0.9 2.6 0.00 0.00 0.00 62 1020.5
20260831164031 91 17 0.9 1.7 0.00 0.00 0.00 62 1020.5
20260831163526 91 282 0.9 2.6 0.00 0.00 0.00 61 1020.5
20260831163021 89 195 0.0 0.0 0.00 0.00 0.00 67 1020.6
20260831162515 90 265 0.9 1.7 0.00 0.00 0.00 65 1020.6
20260831162013 92 144 0.0 2.6 0.00 0.00 0.00 62 1020.7
20260831161509 91 250 0.9 1.7 0.00 0.00 0.00 63 1020.8
20260831161005 91 303 0.0 0.9 0.00 0.00 0.00 63 1020.8
20260831160505 91 283 0.0 1.7 0.00 0.00 0.00 65 1020.6
20260831160000 91 349 0.9 1.7 0.00 0.00 0.00 62 1020.6
20260831155454 90 215 0.0 1.7 0.00 0.00 0.00 64 1020.8
20260831154950 91 335 1.7 1.7 0.00 0.00 0.00 61 1020.7
20260831154446 91 149 0.9 0.9 0.00 0.00 0.00 65 1020.7
20260831153945 89 215 0.9 0.9 0.00 0.00 0.00 66 1020.7
20260831153440 90 91 0.9 0.9 0.00 0.00 0.00 65 1020.7
20260831152937 90 22 1.7 2.6 0.00 0.00 0.00 66 1020.9
20260831152432 89 80 0.0 0.0 0.00 0.00 0.00 68 1020.9
20260831151927 89 323 0.9 1.7 0.00 0.00 0.00 69 1020.8
20260831151426 87 181 0.0 2.6 0.00 0.00 0.00 71 1020.8
20260831150922 87 309 0.0 2.6 0.00 0.00 0.00 71 1020.8
20260831150417 87 251 0.0 0.9 0.00 0.00 0.00 70 1020.9
20260831145916 88 339 2.6 2.6 0.00 0.00 0.00 70 1021.1
20260831145413 86 32 0.0 2.6 0.00 0.00 0.00 71 1020.7
20260831144908 86 134 0.0 3.5 0.00 0.00 0.00 73 1020.9
20260831144404 86 67 0.0 0.9 0.00 0.00 0.00 72 1020.9
20260831143858 86 243 0.0 0.9 0.00 0.00 0.00 72 1021.0
20260831143348 85 2 1.7 3.5 0.00 0.00 0.00 73 1021.1
20260831142843 86 247 0.0 0.9 0.00 0.00 0.00 72 1021.1
20260831142338 86 296 0.9 1.7 0.00 0.00 0.00 74 1020.8
20260831141832 85 336 0.9 1.7 0.00 0.00 0.00 73 1020.8
20260831141327 85 218 0.9 1.7 0.00 0.00 0.00 74 1021.1
20260831140822 85 277 0.9 2.6 0.00 0.00 0.00 74 1020.9
20260831140316 85 305 0.9 1.7 0.00 0.00 0.00 75 1021.0
20260831135815 84 219 0.0 2.6 0.00 0.00 0.00 75 1021.1
20260831135310 84 324 0.0 0.9 0.00 0.00 0.00 77 1021.0
20260831134805 83 214 0.9 0.9 0.00 0.00 0.00 78 1021.1
20260831134302 83 336 1.7 3.5 0.00 0.00 0.00 78 1021.0
20260831133801 83 236 1.7 2.6 0.00 0.00 0.00 78 1021.2
20260831133301 82 226 0.0 1.7 0.00 0.00 0.00 78 1021.2
20260831132755 82 0 0.0 1.7 0.00 0.00 0.00 80 1020.9
20260831132250 82 294 0.0 2.6 0.00 0.00 0.00 80 1020.9
20260831131744 83 305 1.7 2.6 0.00 0.00 0.00 78 1021.0
20260831131242 82 97 0.0 0.9 0.00 0.00 0.00 79 1020.8
20260831130736 82 354 0.0 3.5 0.00 0.00 0.00 81 1020.9
20260831130231 82 228 0.9 0.9 0.00 0.00 0.00 79 1020.8
20260831125730 82 212 0.0 0.9 0.00 0.00 0.00 80 1020.8
20260831125226 81 279 0.0 2.6 0.00 0.00 0.00 82 1020.8
20260831124721 81 104 0.0 0.9 0.00 0.00 0.00 83 1020.8
20260831124217 80 343 0.0 0.9 0.00 0.00 0.00 83 1020.9
20260831123716 80 113 0.0 0.0 0.00 0.00 0.00 83 1020.9
20260831123215 79 113 0.0 0.9 0.00 0.00 0.00 84 1020.9
20260831122710 80 113 0.0 1.7 0.00 0.00 0.00 83 1021.0
20260831122206 80 117 0.0 0.0 0.00 0.00 0.00 84 1020.9
20260831121705 79 117 0.0 0.9 0.00 0.00 0.00 84 1020.8
20260831121202 78 147 0.0 0.9 0.00 0.00 0.00 86 1020.9
20260831120657 77 147 0.0 0.9 0.00 0.00 0.00 88 1020.9
20260831120151 75 216 0.0 0.0 0.00 0.00 0.00 92 1020.7
20260831115647 75 206 0.0 0.0 0.00 0.00 0.00 93 1020.8
20260831115143 74 184 0.0 0.9 0.00 0.00 0.00 94 1020.6
20260831114642 73 210 0.0 0.0 0.00 0.00 0.00 97 1020.6
20260831114137 73 209 0.0 0.0 0.00 0.00 0.00 97 1020.6
20260831113637 72 213 0.0 0.0 0.00 0.00 0.00 98 1020.4
20260831113132 72 226 0.0 0.0 0.00 0.00 0.00 98 1020.5
20260831112631 72 225 0.0 0.0 0.00 0.00 0.00 99 1020.4
20260831112126 72 235 0.0 0.0 0.00 0.00 0.00 99 1020.3
20260831111622 71 235 0.0 0.0 0.00 0.00 0.00 99 1020.5
20260831111118 71 311 0.0 0.0 0.00 0.00 0.00 99 1020.4
20260831110613 71 240 0.0 0.0 0.00 0.00 0.00 99 1020.3
20260831110109 71 240 0.0 0.0 0.00 0.00 0.00 99 1020.3
20260831105607 71 229 0.0 0.0 0.00 0.00 0.00 99 1020.3